No1 Tokuyama — JK5318 — position and weather

sailwx.info

Track history (hours):
 
Tides and Currents Weather Stations Pressure Air Temp Water Temp Dewpoint Dewpoint Depression Visibility Wind Speed Wind Dir Waves Ship Positions

No1 Tokuyama

Last reported at 2014-Oct-24 09:10 UTC. Time now 2014-Oct-25 04:25 UTC.
Position N 35°04' E 139°37'.

Length 110 m; draft 5.4 m.

Type: Cargo ship. MMSI: 431400487.

Date/timePositionNaut miles runAvg speedWind from/ knotsBaromVisibWave heightAir tempDewpointWater temp
2014-Oct-24 09:10N 35°04' E 139°37'813.3
2014-Oct-24 08:33N 35°10' E 139°44'1212.0
2014-Oct-24 07:33N 35°22' E 139°42'8 8.4
2014-Oct-24 06:34N 35°30' E 139°45'1 0.5
2014-Oct-24 05:31N 35°30' E 139°44'0 0.0
2014-Oct-24 04:34N 35°30' E 139°44'0 0.0
2014-Oct-24 03:31N 35°30' E 139°44'0 0.0
2014-Oct-24 02:31N 35°30' E 139°44'0 0.0
2014-Oct-24 01:31N 35°30' E 139°44'0 0.0
2014-Oct-24 00:31N 35°30' E 139°44'0 0.0
2014-Oct-23 23:31N 35°30' E 139°44'0 0.0
2014-Oct-23 22:31N 35°30' E 139°44'0 0.0
2014-Oct-23 21:31N 35°30' E 139°44'0 0.0
2014-Oct-23 20:31N 35°30' E 139°44'0 0.0
2014-Oct-23 19:31N 35°30' E 139°44'0 0.0
2014-Oct-23 18:31N 35°30' E 139°44'0 0.0
2014-Oct-23 17:31N 35°30' E 139°44'0 0.0
2014-Oct-23 16:31N 35°30' E 139°44'0 0.0
2014-Oct-23 15:28N 35°30' E 139°44'0 0.0
2014-Oct-23 14:31N 35°30' E 139°44'0 0.0
2014-Oct-23 13:31N 35°30' E 139°44'0 0.0
2014-Oct-23 12:31N 35°30' E 139°44'0 0.0
2014-Oct-23 11:31N 35°30' E 139°44'0 0.0
2014-Oct-23 10:31N 35°30' E 139°44'0 0.0
2014-Oct-23 09:31N 35°30' E 139°44'0 0.0
2014-Oct-23 08:31N 35°30' E 139°44'3 3.4
2014-Oct-23 07:33N 35°27' E 139°44'6 6.0
2014-Oct-23 06:31N 35°22' E 139°49'0 0.0
2014-Oct-23 05:25N 35°22' E 139°49'0 0.0
2014-Oct-23 04:31N 35°22' E 139°49'0 0.0
2014-Oct-23 03:31N 35°22' E 139°49'0 0.0
2014-Oct-23 02:28N 35°22' E 139°49'0 0.0
2014-Oct-23 01:31N 35°22' E 139°49'0 0.0
2014-Oct-23 00:31N 35°22' E 139°49'1 1.3
2014-Oct-22 23:34N 35°22' E 139°51'0 0.0
2014-Oct-22 22:31N 35°22' E 139°51'0 0.0
2014-Oct-22 21:31N 35°22' E 139°51'0 0.0
2014-Oct-22 20:31N 35°22' E 139°51'0 0.0
2014-Oct-22 19:31N 35°22' E 139°51'0 0.0
2014-Oct-22 18:28N 35°22' E 139°51'0 0.0
2014-Oct-22 17:31N 35°22' E 139°51'0 0.0
2014-Oct-22 16:31N 35°22' E 139°51'0 0.0
2014-Oct-22 15:31N 35°22' E 139°51'0 0.0
2014-Oct-22 14:31N 35°22' E 139°51'0 0.0
2014-Oct-22 13:31N 35°22' E 139°51'0 0.0
2014-Oct-22 12:31N 35°22' E 139°51'0 0.0
2014-Oct-22 11:31N 35°22' E 139°51'0 0.0
2014-Oct-22 10:28N 35°22' E 139°51'0 0.1
2014-Oct-22 09:31N 35°22' E 139°51'1 1.5
2014-Oct-22 08:33N 35°23' E 139°49'7 6.9
2014-Oct-22 07:31N 35°26' E 139°41'0 0.0
2014-Oct-22 06:31N 35°26' E 139°41'0 0.0
2014-Oct-22 05:31N 35°26' E 139°41'0 0.0
2014-Oct-22 04:31N 35°26' E 139°41'0 0.0
2014-Oct-22 03:31N 35°26' E 139°41'0 0.0
2014-Oct-22 02:31N 35°26' E 139°41'0 0.0
2014-Oct-22 01:31N 35°26' E 139°41'0 0.0
2014-Oct-22 00:31N 35°26' E 139°41'0 0.0
2014-Oct-21 23:31N 35°26' E 139°41'0 0.0
2014-Oct-21 22:31N 35°26' E 139°41'0 0.0
2014-Oct-21 21:31N 35°26' E 139°41'0 0.0
2014-Oct-21 20:31N 35°26' E 139°41'0 0.0
2014-Oct-21 19:31N 35°26' E 139°41'0 0.0
2014-Oct-21 18:31N 35°26' E 139°41'0 0.0
2014-Oct-21 17:31N 35°26' E 139°41'0 0.0
2014-Oct-21 16:31N 35°26' E 139°41'0 0.0
2014-Oct-21 15:31N 35°26' E 139°41'0 0.0
2014-Oct-21 14:31N 35°26' E 139°41'0 0.4
2014-Oct-21 13:33N 35°25' E 139°41'1110.8
2014-Oct-21 12:33N 35°15' E 139°47'25610.2
2014-Oct-20 11:28N 34°05' E 134°48'  
2014-Oct-18 02:05N 34°07' E 132°23'713.0
2014-Oct-18 01:33N 34°14' E 132°22'8 7.7
2014-Oct-18 00:33N 34°21' E 132°26'0 0.0
2014-Oct-17 23:33N 34°21' E 132°26'0 0.0
2014-Oct-17 22:33N 34°21' E 132°26'5 5.1
2014-Oct-17 21:34N 34°17' E 132°23'9 9.1
2014-Oct-17 20:33N 34°07' E 132°23'80 2.4
2014-Oct-16 10:33N 34°02' E 130°46'1413.9
2014-Oct-16 09:31N 33°58' E 130°30'1313.4
2014-Oct-16 08:33N 33°48' E 130°19'1010.3
2014-Oct-16 07:33N 33°38' E 130°21'3 2.8
2014-Oct-16 06:33N 33°37' E 130°24'0 0.0
2014-Oct-16 05:33N 33°37' E 130°24'0 0.1
2014-Oct-16 04:33N 33°37' E 130°24'0 0.0
2014-Oct-16 03:33N 33°37' E 130°24'0 0.1
2014-Oct-16 02:33N 33°37' E 130°24'0 0.0
2014-Oct-16 01:33N 33°37' E 130°24'0 0.0
2014-Oct-16 00:33N 33°37' E 130°24'0 0.0
2014-Oct-15 23:33N 33°37' E 130°24'0 0.0
2014-Oct-15 22:33N 33°37' E 130°24'3 3.3
2014-Oct-15 21:33N 33°38' E 130°20'0 0.0
2014-Oct-15 20:22N 33°38' E 130°20'0 0.0
2014-Oct-15 19:31N 33°38' E 130°20'4 3.6
2014-Oct-15 18:32N 33°40' E 130°17'1111.7
2014-Oct-15 17:33N 33°51' E 130°20'1111.1
2014-Oct-15 16:33N 33°59' E 130°29'  
Track history (hours):
 
Tides and Currents Weather Stations Pressure Air Temp Water Temp Dewpoint Dewpoint Depression Visibility Wind Speed Wind Dir Waves Ship Positions

No1 Tokuyama

Last reported at 2014-Oct-24 09:10 UTC. Time now 2014-Oct-25 04:25 UTC.
Position N 35°04' E 139°37'.

Length 110 m; draft 5.4 m.

Type: Cargo ship. MMSI: 431400487.

Date/timePositionNaut miles runAvg speedWind from/ knotsBaromVisibWave heightAir tempDewpointWater temp
2014-Oct-24 09:10N 35°04' E 139°37'813.3
2014-Oct-24 08:33N 35°10' E 139°44'1212.0
2014-Oct-24 07:33N 35°22' E 139°42'8 8.4
2014-Oct-24 06:34N 35°30' E 139°45'1 0.5
2014-Oct-24 05:31N 35°30' E 139°44'0 0.0
2014-Oct-24 04:34N 35°30' E 139°44'0 0.0
2014-Oct-24 03:31N 35°30' E 139°44'0 0.0
2014-Oct-24 02:31N 35°30' E 139°44'0 0.0
2014-Oct-24 01:31N 35°30' E 139°44'0 0.0
2014-Oct-24 00:31N 35°30' E 139°44'0 0.0
2014-Oct-23 23:31N 35°30' E 139°44'0 0.0
2014-Oct-23 22:31N 35°30' E 139°44'0 0.0
2014-Oct-23 21:31N 35°30' E 139°44'0 0.0
2014-Oct-23 20:31N 35°30' E 139°44'0 0.0
2014-Oct-23 19:31N 35°30' E 139°44'0 0.0
2014-Oct-23 18:31N 35°30' E 139°44'0 0.0
2014-Oct-23 17:31N 35°30' E 139°44'0 0.0
2014-Oct-23 16:31N 35°30' E 139°44'0 0.0
2014-Oct-23 15:28N 35°30' E 139°44'0 0.0
2014-Oct-23 14:31N 35°30' E 139°44'0 0.0
2014-Oct-23 13:31N 35°30' E 139°44'0 0.0
2014-Oct-23 12:31N 35°30' E 139°44'0 0.0
2014-Oct-23 11:31N 35°30' E 139°44'0 0.0
2014-Oct-23 10:31N 35°30' E 139°44'0 0.0
2014-Oct-23 09:31N 35°30' E 139°44'0 0.0
2014-Oct-23 08:31N 35°30' E 139°44'3 3.4
2014-Oct-23 07:33N 35°27' E 139°44'6 6.0
2014-Oct-23 06:31N 35°22' E 139°49'0 0.0
2014-Oct-23 05:25N 35°22' E 139°49'0 0.0
2014-Oct-23 04:31N 35°22' E 139°49'0 0.0
2014-Oct-23 03:31N 35°22' E 139°49'0 0.0
2014-Oct-23 02:28N 35°22' E 139°49'0 0.0
2014-Oct-23 01:31N 35°22' E 139°49'0 0.0
2014-Oct-23 00:31N 35°22' E 139°49'1 1.3
2014-Oct-22 23:34N 35°22' E 139°51'0 0.0
2014-Oct-22 22:31N 35°22' E 139°51'0 0.0
2014-Oct-22 21:31N 35°22' E 139°51'0 0.0
2014-Oct-22 20:31N 35°22' E 139°51'0 0.0
2014-Oct-22 19:31N 35°22' E 139°51'0 0.0
2014-Oct-22 18:28N 35°22' E 139°51'0 0.0
2014-Oct-22 17:31N 35°22' E 139°51'0 0.0
2014-Oct-22 16:31N 35°22' E 139°51'0 0.0
2014-Oct-22 15:31N 35°22' E 139°51'0 0.0
2014-Oct-22 14:31N 35°22' E 139°51'0 0.0
2014-Oct-22 13:31N 35°22' E 139°51'0 0.0
2014-Oct-22 12:31N 35°22' E 139°51'0 0.0
2014-Oct-22 11:31N 35°22' E 139°51'0 0.0
2014-Oct-22 10:28N 35°22' E 139°51'0 0.1
2014-Oct-22 09:31N 35°22' E 139°51'1 1.5
2014-Oct-22 08:33N 35°23' E 139°49'7 6.9
2014-Oct-22 07:31N 35°26' E 139°41'0 0.0
2014-Oct-22 06:31N 35°26' E 139°41'0 0.0
2014-Oct-22 05:31N 35°26' E 139°41'0 0.0
2014-Oct-22 04:31N 35°26' E 139°41'0 0.0
2014-Oct-22 03:31N 35°26' E 139°41'0 0.0
2014-Oct-22 02:31N 35°26' E 139°41'0 0.0
2014-Oct-22 01:31N 35°26' E 139°41'0 0.0
2014-Oct-22 00:31N 35°26' E 139°41'0 0.0
2014-Oct-21 23:31N 35°26' E 139°41'0 0.0
2014-Oct-21 22:31N 35°26' E 139°41'0 0.0
2014-Oct-21 21:31N 35°26' E 139°41'0 0.0
2014-Oct-21 20:31N 35°26' E 139°41'0 0.0
2014-Oct-21 19:31N 35°26' E 139°41'0 0.0
2014-Oct-21 18:31N 35°26' E 139°41'0 0.0
2014-Oct-21 17:31N 35°26' E 139°41'0 0.0
2014-Oct-21 16:31N 35°26' E 139°41'0 0.0
2014-Oct-21 15:31N 35°26' E 139°41'0 0.0
2014-Oct-21 14:31N 35°26' E 139°41'0 0.4
2014-Oct-21 13:33N 35°25' E 139°41'1110.8
2014-Oct-21 12:33N 35°15' E 139°47'25610.2
2014-Oct-20 11:28N 34°05' E 134°48'  
2014-Oct-18 02:05N 34°07' E 132°23'713.0
2014-Oct-18 01:33N 34°14' E 132°22'8 7.7
2014-Oct-18 00:33N 34°21' E 132°26'0 0.0
2014-Oct-17 23:33N 34°21' E 132°26'0 0.0
2014-Oct-17 22:33N 34°21' E 132°26'5 5.1
2014-Oct-17 21:34N 34°17' E 132°23'9 9.1
2014-Oct-17 20:33N 34°07' E 132°23'80 2.4
2014-Oct-16 10:33N 34°02' E 130°46'1413.9
2014-Oct-16 09:31N 33°58' E 130°30'1313.4
2014-Oct-16 08:33N 33°48' E 130°19'1010.3
2014-Oct-16 07:33N 33°38' E 130°21'3 2.8
2014-Oct-16 06:33N 33°37' E 130°24'0 0.0
2014-Oct-16 05:33N 33°37' E 130°24'0 0.1
2014-Oct-16 04:33N 33°37' E 130°24'0 0.0
2014-Oct-16 03:33N 33°37' E 130°24'0 0.1
2014-Oct-16 02:33N 33°37' E 130°24'0 0.0
2014-Oct-16 01:33N 33°37' E 130°24'0 0.0
2014-Oct-16 00:33N 33°37' E 130°24'0 0.0
2014-Oct-15 23:33N 33°37' E 130°24'0 0.0
2014-Oct-15 22:33N 33°37' E 130°24'3 3.3
2014-Oct-15 21:33N 33°38' E 130°20'0 0.0
2014-Oct-15 20:22N 33°38' E 130°20'0 0.0
2014-Oct-15 19:31N 33°38' E 130°20'4 3.6
2014-Oct-15 18:32N 33°40' E 130°17'1111.7
2014-Oct-15 17:33N 33°51' E 130°20'1111.1
2014-Oct-15 16:33N 33°59' E 130°29'  

Dump ship's entire track history